User: anonymous
Location: Vancouver
(49.2500°N, 123.1330°W)
Time: 16:29:14
(UTC-07:00)
Language:

Cosmos 1864 Rocket - Orbit

View from above orbital plane
View from above orbital plane
View from above satellite
View from above satellite

Ground track
Ground track

The orbit data is extracted from the following two-line orbital elements,

1 18161U 87057B   14110.21695235  .00000078  00000-0  64164-4 0  4719
2 18161 082.9369 210.5696 0029839 303.1736 116.9762 13.76832926325424
Epoch (UTC): 20 April 2014 05:12:24
Eccentricity: 0.0029839
inclination: 82.9369°
perigee height: 953 km
apogee height: 997 km
right ascension of ascending node: 210.5696°
argument of perigee: 303.1736°
revolutions per day: 13.76832926
mean anomaly at epoch: 116.9762°
orbit number at epoch: 32542

The dashed part of the orbit path shows where the satellite is in the earth's shadow,  

DLR